Location: Unspecified
(0.0000°N, 0.0000°E)
Time: 12:13:16
(UTC+00:00)

deb Intelsat II F2 - Visible Passes

Search period start: 20 July 2025 00:00
Search period end: 30 July 2025 00:00
Orbit: 599 x 29703 km, 27.0° (Epoch: 01 August)

Date Brightness Start Highest point End Pass type
(mag) Time Alt. Az. Time Alt. Az. Time Alt. Az.
20 Jul ? 00:29:16 10° WNW 07:37:49 78° SW 08:24:58 10° SE visible
21 Jul ? 02:59:43 10° WNW 05:26:23 44° NW 10:40:08 10° SSE visible
21 Jul ? 19:44:23 10° W 19:51:25 55° NNW 03:18:22 10° E visible
22 Jul ? 22:00:48 10° WNW 22:22:17 47° N 05:56:41 10° ESE visible
24 Jul ? 00:21:18 10° WNW 07:27:47 75° SW 08:16:34 10° SE visible
25 Jul ? 02:51:45 10° WNW 05:15:15 44° WNW 10:31:44 10° SSE visible
25 Jul ? 19:36:09 10° W 19:43:22 51° NNW 03:11:21 10° E visible
26 Jul ? 06:26:11 10° WNW 07:07:16 12° WNW 07:58:52 10° WNW visible
26 Jul ? 21:52:42 10° WNW 22:15:33 46° N 05:48:24 10° ESE visible
28 Jul ? 00:13:16 10° WNW 05:04:58 72° NW 08:08:07 10° SE visible
29 Jul ? 02:43:41 10° WNW 05:03:57 43° WNW 10:23:18 10° SSE visible
